• In Hungary
  • List of Countries
  • For 7 days
  • Water Temperature
  • Satellite Maps
  • Weather Map
  • News
  • Weather Widgets
  • user-avatar
    Login

    Hourly Weather Djelfa

    Today, 19 November, Sunday

    Time Temperature Precipitation Wind Pressure Humidity
    00:00 +6°C° 0 mm 0 mps 664 mmHg 48%
    01:00 +5°C° 0 mm 0 mps 664 mmHg 50%
    02:00 +5°C° 0 mm 0 mps 664 mmHg 51%
    03:00 +5°C° 0 mm 0 mps 664 mmHg 53%
    04:00 +5°C° 0 mm 0 mps 664 mmHg 55%
    05:00 +4°C° 0 mm 0 mps 664 mmHg 56%
    06:00 +4°C° 0 mm 0 mps 664 mmHg 58%
    07:00 +7°C° 0 mm 1 mps 665 mmHg 53%
    08:00 +9°C° 0 mm 1 mps 666 mmHg 48%
    09:00 +11°C° 0 mm 1 mps 667 mmHg 43%
    10:00 +12°C° 0 mm 1 mps 667 mmHg 40%
    11:00 +13°C° 0 mm 1 mps 667 mmHg 38%
    12:00 +14°C° 0 mm 2 mps 667 mmHg 35%
    13:00 +14°C° 0 mm 2 mps 667 mmHg 34%
    14:00 +14°C° 0 mm 2 mps 666 mmHg 33%
    15:00 +14°C° 0 mm 2 mps 666 mmHg 31%
    16:00 +13°C° 0 mm 2 mps 666 mmHg 35%
    17:00 +12°C° 0 mm 2 mps 666 mmHg 40%
    18:00 +10°C° 0 mm 1 mps 666 mmHg 44%
    19:00 +10°C° 0 mm 1 mps 666 mmHg 46%
    20:00 +9°C° 0 mm 1 mps 666 mmHg 49%
    21:00 +8°C° 0 mm 1 mps 666 mmHg 51%
    22:00 +8°C° 0 mm 1 mps 666 mmHg 53%
    23:00 +6°C° 0 mm 0 mps 666 mmHg 54%

    Tomorrow, 20 November, Monday

    Time Temperature Precipitation Wind Pressure Humidity
    00:00 +6°C° 0 mm 0 mps 666 mmHg 56%
    01:00 +5°C° 0 mm 0 mps 666 mmHg 56%
    02:00 +5°C° 0 mm 0 mps 666 mmHg 57%
    03:00 +5°C° 0 mm 0 mps 666 mmHg 58%
    04:00 +4°C° 0 mm 0 mps 666 mmHg 59%
    05:00 +4°C° 0 mm 0 mps 666 mmHg 60%
    06:00 +4°C° 0 mm 0 mps 666 mmHg 61%
    07:00 +6°C° 0 mm 0 mps 667 mmHg 53%
    08:00 +8°C° 0 mm 0 mps 668 mmHg 44%
    09:00 +10°C° 0 mm 0 mps 669 mmHg 35%
    10:00 +11°C° 0 mm 0 mps 669 mmHg 31%
    11:00 +13°C° 0 mm 1 mps 669 mmHg 27%
    12:00 +14°C° 0 mm 1 mps 669 mmHg 23%
    13:00 +15°C° 0 mm 1 mps 669 mmHg 22%
    14:00 +14°C° 0 mm 0 mps 668 mmHg 21%
    15:00 +14°C° 0 mm 0 mps 668 mmHg 19%
    16:00 +14°C° 0 mm 1 mps 668 mmHg 23%
    17:00 +12°C° 0 mm 1 mps 668 mmHg 27%
    18:00 +11°C° 0 mm 1 mps 668 mmHg 30%
    19:00 +10°C° 0 mm 1 mps 667 mmHg 32%
    20:00 +9°C° 0 mm 1 mps 667 mmHg 34%
    21:00 +8°C° 0 mm 1 mps 667 mmHg 36%
    22:00 +8°C° 0 mm 1 mps 667 mmHg 36%
    23:00 +8°C° 0 mm 1 mps 667 mmHg 37%

    Day after tomorrow, 21 November, Tuesday

    Time Temperature Precipitation Wind Pressure Humidity
    00:00 +7°C° 0 mm 2 mps 667 mmHg 37%
    01:00 +6°C° 0 mm 2 mps 667 mmHg 39%
    02:00 +6°C° 0 mm 1 mps 666 mmHg 42%
    03:00 +6°C° 0 mm 1 mps 666 mmHg 44%
    04:00 +5°C° 0 mm 1 mps 666 mmHg 44%
    05:00 +5°C° 0 mm 1 mps 666 mmHg 45%
    06:00 +5°C° 0 mm 1 mps 666 mmHg 45%
    07:00 +7°C° 0 mm 1 mps 667 mmHg 39%
    08:00 +9°C° 0 mm 1 mps 667 mmHg 33%
    09:00 +11°C° 0 mm 1 mps 668 mmHg 27%
    10:00 +12°C° 0 mm 1 mps 668 mmHg 23%
    11:00 +14°C° 0 mm 1 mps 668 mmHg 20%
    12:00 +15°C° 0 mm 2 mps 668 mmHg 16%
    13:00 +15°C° 0 mm 1 mps 668 mmHg 16%
    14:00 +15°C° 0 mm 1 mps 667 mmHg 15%
    15:00 +15°C° 0 mm 1 mps 667 mmHg 15%
    16:00 +14°C° 0 mm 1 mps 667 mmHg 18%
    17:00 +12°C° 0 mm 1 mps 666 mmHg 21%
    18:00 +11°C° 0 mm 1 mps 666 mmHg 25%
    19:00 +10°C° 0 mm 1 mps 666 mmHg 26%
    20:00 +9°C° 0 mm 2 mps 666 mmHg 28%
    21:00 +8°C° 0 mm 2 mps 666 mmHg 29%
    22:00 +8°C° 0 mm 2 mps 666 mmHg 31%
    23:00 +8°C° 0 mm 1 mps 666 mmHg 33%

    22 November, Wednesday

    Time Temperature Precipitation Wind Pressure Humidity
    00:00 +8°C° 0 mm 1 mps 665 mmHg 34%
    01:00 +7°C° 0 mm 1 mps 665 mmHg 35%
    02:00 +7°C° 0 mm 1 mps 664 mmHg 36%
    03:00 +6°C° 0 mm 1 mps 664 mmHg 37%
    04:00 +6°C° 0 mm 1 mps 664 mmHg 37%
    05:00 +5°C° 0 mm 1 mps 664 mmHg 38%
    06:00 +5°C° 0 mm 1 mps 663 mmHg 38%
    07:00 +7°C° 0 mm 1 mps 664 mmHg 34%
    08:00 +9°C° 0 mm 1 mps 665 mmHg 29%
    09:00 +11°C° 0 mm 1 mps 666 mmHg 24%
    10:00 +12°C° 0 mm 2 mps 666 mmHg 22%
    11:00 +14°C° 0 mm 2 mps 666 mmHg 19%
    12:00 +14°C° 0 mm 3 mps 666 mmHg 17%
    13:00 +14°C° 0 mm 3 mps 666 mmHg 17%
    14:00 +14°C° 0 mm 3 mps 666 mmHg 17%
    15:00 +14°C° 0 mm 3 mps 666 mmHg 17%
    16:00 +13°C° 0 mm 3 mps 665 mmHg 21%
    17:00 +11°C° 0 mm 3 mps 665 mmHg 24%
    18:00 +10°C° 0 mm 3 mps 665 mmHg 28%
    19:00 +9°C° 0 mm 3 mps 665 mmHg 29%
    20:00 +9°C° 0 mm 3 mps 665 mmHg 31%
    21:00 +8°C° 0 mm 3 mps 665 mmHg 33%
    22:00 +8°C° 0 mm 2 mps 665 mmHg 34%
    23:00 +7°C° 0 mm 2 mps 665 mmHg 36%

    23 November, Thursday

    Time Temperature Precipitation Wind Pressure Humidity
    00:00 +7°C° 0 mm 2 mps 665 mmHg 38%
    01:00 +7°C° 0 mm 2 mps 665 mmHg 38%
    02:00 +6°C° 0 mm 2 mps 665 mmHg 39%
    03:00 +7°C° 0 mm 1 mps 665 mmHg 40%
    04:00 +7°C° 0 mm 1 mps 665 mmHg 40%
    05:00 +7°C° 0 mm 1 mps 665 mmHg 41%
    06:00 +7°C° 0 mm 1 mps 665 mmHg 41%
    07:00 +9°C° 0 mm 1 mps 666 mmHg 37%
    08:00 +10°C° 0 mm 1 mps 667 mmHg 34%
    09:00 +12°C° 0 mm 1 mps 668 mmHg 31%
    10:00 +12°C° 0 mm 1 mps 668 mmHg 29%
    11:00 +13°C° 0 mm 2 mps 668 mmHg 27%
    12:00 +14°C° 0 mm 2 mps 668 mmHg 25%
    13:00 +14°C° 0 mm 2 mps 668 mmHg 25%
    14:00 +14°C° 0 mm 1 mps 668 mmHg 25%
    15:00 +15°C° 0 mm 1 mps 668 mmHg 24%
    16:00 +13°C° 0 mm 1 mps 668 mmHg 27%
    17:00 +12°C° 0 mm 1 mps 668 mmHg 30%
    18:00 +11°C° 0 mm 1 mps 668 mmHg 33%
    19:00 +10°C° 0 mm 1 mps 668 mmHg 35%
    20:00 +10°C° 0 mm 1 mps 668 mmHg 36%
    21:00 +9°C° 0 mm 1 mps 668 mmHg 37%
    22:00 +9°C° 0 mm 1 mps 668 mmHg 38%
    23:00 +9°C° 0 mm 1 mps 668 mmHg 38%

    24 November, Friday

    Time Temperature Precipitation Wind Pressure Humidity
    00:00 +8°C° 0 mm 1 mps 668 mmHg 39%
    01:00 +8°C° 0 mm 1 mps 667 mmHg 40%
    02:00 +8°C° 0 mm 1 mps 667 mmHg 40%
    03:00 +8°C° 0 mm 1 mps 667 mmHg 41%
    04:00 +7°C° 0 mm 1 mps 667 mmHg 42%
    05:00 +7°C° 0 mm 1 mps 667 mmHg 43%
    06:00 +7°C° 0 mm 1 mps 667 mmHg 44%
    07:00 +9°C° 0 mm 1 mps 668 mmHg 39%
    08:00 +11°C° 0 mm 1 mps 669 mmHg 34%
    09:00 +13°C° 0 mm 1 mps 670 mmHg 29%
    10:00 +15°C° 0 mm 1 mps 670 mmHg 27%
    11:00 +16°C° 0 mm 1 mps 670 mmHg 25%
    12:00 +17°C° 0 mm 2 mps 670 mmHg 24%
    13:00 +18°C° 0 mm 1 mps 670 mmHg 24%
    14:00 +18°C° 0 mm 1 mps 670 mmHg 24%
    15:00 +19°C° 0 mm 1 mps 670 mmHg 24%
    16:00 +16°C° 0 mm 1 mps 670 mmHg 27%
    17:00 +14°C° 0 mm 1 mps 669 mmHg 31%
    18:00 +13°C° 0 mm 1 mps 669 mmHg 35%
    19:00 +12°C° 0 mm 1 mps 669 mmHg 36%
    20:00 +12°C° 0 mm 1 mps 669 mmHg 38%
    21:00 +11°C° 0 mm 1 mps 670 mmHg 39%
    22:00 +11°C° 0 mm 1 mps 669 mmHg 40%
    23:00 +10°C° 0 mm 2 mps 669 mmHg 41%
    Show more